COSMOS 2499 DEB, 49942

Orbit data source: Space-Track

COSMOS 2499 DEB, 49942 is space debris in LEO originally from a launch on Fri, 23 May 2014 UTC launched from the Plesetsk Missile And Space Complex (PKMTR). Debris objects in space refer to the collection of defunct objects orbiting the Earth. Examples of debris include non-operational satellites, rocket bodies, and fragments generated from explosions, collisions, or faulty payload assembly.

Loading next visibility...
Identifier
49942, 2014-028Z
Orbit
LEO
Country
Flag of CISCIS
Related business
Manufacturer
TsNIIKhM
Mission
Spacecraft
Bus & Motor
Unknown
Mass
Unknown
Launch date (UTC)
2014-05-23 (12 years ago)
Launch vehicle
Unknown
Launch site
Plesetsk Missile And Space Complex (PKMTR)
Object type
Payload
Rocket body
Debris
Shape & HBR
Unknown shape, 0.1 m
Radar Cross Section
Small (<0.1 m²)

Expand to show TLE details & history
Last TLE update: 9 hours ago

TLE from 9 hours ago
0 COSMOS 2499 DEB
1 49942U 14028Z   25349.81651237  .00001201  00000-0  43929-2 0  9992
2 49942  82.4558  19.6045 0217450  80.2598 282.2989 12.85144984192657
Epoch: 2025-12-15T19:35Z
TLE epoch observation values (Epoch: 2025-12-15T19:35:46.668Z)
Latitude
-0.00005°
Longitude
0.9504°
Altitude
1,291.445 km
Speed
7.226 km/s
True Right ascension
01h 18m 25s
True Declination
0° 00' 00"
Sunlit
Object was in daylight at epoch
Visualization orbit readout
Latitude
Unknown
Longitude
Unknown
Altitude
Unknown
Speed
Unknown
Apparent Right ascension
Unknown
Apparent Declination
Unknown
Sunlit
N/A
Visualization observer readout
Local Sidereal Time
03:22:58
Azimuth
Unknown
Elevation
Unknown
Doppler factor
Unknown
Orbital elements
Apogee altitude
1,485.5 km
Perigee altitude
1,150.789 km
Semi-major axis
7,696.281 km
Eccentricity
0.02175
Inclination
82.4558°
RAAN
19.6045°
Arg. of periapsis
80.2598°
True anomaly
279.85086°
Mean anomaly
282.2989°
Eccentric anomaly
281.07621°
Mean motion
3.21456 °/min
Orbital period
111.99 mins
BSTAR
0.0043929
Loading maneuver chart data...
Computing Atmospheric mass density...
Loading historical data...
Loading historical data...
Loading historical data...
Loading historical data...
Loading historical data...
Loading historical data...
Loading historical data...

Documentation

Showing up to 5 results
|